Volver al catálogo

ONEWEB-0175

ActivoComunicacionesPO
NORAD 48073·PAYLOAD·🇬🇧 United Kingdom

Lanzado Mar 25, 2021 desde Vostochny Cosmodrome

Loading…

Próximos Pases (próximas 24 horas)

TLE

ActualizadoSource: CelesTrak SupGP

Época: Sep 14, 2026, 18:07 UTC

1 48073C 21025AH  26257.75536296 -.00001467  00000+0 -40210-2 0  2572
2 48073  87.8919 302.3919 0001943  87.3381 312.2038 13.13467713    16

Sigue ONEWEB-0175 en tiempo real con AllMySat

Download on the App Store